Location: Arcones
(41.1182°N, 3.7238°W)
Time: 10:59:39
(UTC+00:00)

Cosmos 2263 Rocket - Visible Passes

Search period start: 15 March 2026 00:00
Search period end: 25 March 2026 00:00
Orbit: 822 x 848 km, 71.0° (Epoch: 14 March)

Date Brightness Start Highest point End Pass type
(mag) Time Alt. Az. Time Alt. Az. Time Alt. Az.
15 Mar 4.7 22:07:38 10° N 22:08:17 13° N 22:08:17 13° N visible
16 Mar 4.6 21:50:33 10° N 21:51:35 14° N 21:51:35 14° N visible
17 Mar 4.4 21:33:27 10° N 21:34:53 15° NNE 21:34:53 15° NNE visible
18 Mar 4.3 21:16:23 10° N 21:18:13 16° NNE 21:18:13 16° NNE visible
18 Mar 4.9 22:59:22 10° NNW 22:59:53 13° NNW 22:59:53 13° NNW visible
19 Mar 4.1 20:59:20 10° N 21:01:34 17° NNE 21:01:34 17° NNE visible
19 Mar 4.7 22:42:10 10° NNW 22:43:14 16° NNW 22:43:14 16° NNW visible
20 Mar 4.0 20:42:18 10° N 20:44:57 17° NE 20:44:57 17° NE visible
20 Mar 4.4 22:24:57 10° NNW 22:26:37 20° NNW 22:26:37 20° NNW visible
21 Mar 4.0 20:25:17 10° N 20:28:21 16° NE 20:28:21 16° NE visible
21 Mar 4.1 22:07:45 10° NNW 22:10:02 25° NNW 22:10:02 25° NNW visible
22 Mar 4.0 20:08:18 10° NNE 20:11:28 15° NE 20:11:48 15° NE visible
22 Mar 3.7 21:50:33 10° NNW 21:53:28 32° NNW 21:53:28 32° NNW visible
23 Mar 4.0 19:51:21 10° NNE 19:54:11 14° NE 19:55:16 13° ENE visible
23 Mar 3.2 21:33:22 10° NNW 21:36:56 41° NNW 21:36:56 41° NNW visible
24 Mar 4.1 19:34:26 10° NNE 19:36:54 13° NE 19:38:47 11° ENE visible
24 Mar 2.7 21:16:11 10° NNW 21:20:28 52° N 21:20:28 52° N visible
24 Mar 5.0 23:02:07 10° WNW 23:02:08 10° WNW 23:02:08 10° WNW visible
